Gene Autry, OK

5:39 PM CDT on July 23, 2016 (GMT -0500)
Ardmore Municipal

Weather History for KADM - August, 2013

Change the Weather History Date:

Friday, August 9, 2013

  Actual Average Record
Temperature  
Mean Temperature 84 °F -  
Max Temperature 96 °F 92 °F 107 °F (1999)
Min Temperature 75 °F 70 °F 62 °F (1997)
Cooling Degree Days 19    
Growing Degree Days 34 (Base 50)    
Moisture  
Dew Point 74 °F    
Average Humidity 87    
Maximum Humidity 97    
Minimum Humidity 56    
Precipitation  
Precipitation 0.01 in - - ()
Sea Level Pressure  
Sea Level Pressure 29.92 in    
Wind  
Wind Speed 6 mph (ENE)    
Max Wind Speed 12 mph    
Max Gust Speed 17 mph    
Visibility 10 miles    
Events Rain , Thunderstorm    
Averages and records for this station are not official NWS values.
T = Trace of Precipitation, MM = Missing Value Source: NWS Daily Summary

Daily Weather History Graph

Daily Weather History Graph

Search for Another Location

Airport or City:

Trip Planner

Search our weather history database for the weather conditions in past years. The results will help you decide how hot, cold, wet, or windy it might be!

Date:

Astronomy

Aug. 09, 2013 Rise Set
Actual Time 6:44 AM CDT 8:21 PM CDT
Civil Twilight 6:18 AM CDT 8:48 PM CDT
Nautical Twilight 5:45 AM CDT 9:20 PM CDT
Astronomical Twilight 5:11 AM CDT 9:54 PM CDT
Moon 9:22 AM CDT (8/9) 9:43 PM CDT (8/9)
Length of Visible Light 14h 30m
Length of Day
13h 36m
Waxing Crescent, 8% of the Moon is Illuminated
Aug 9
Waxing Crescent
Aug 14
First Quarter
Aug 20
Full
Aug 28
Last Quarter
Sep 5
New

Hourly Weather History & Observations

Time (CDT) Temp. Heat Index Dew Point Humidity Pressure Visibility Wind Dir Wind Speed Gust Speed Precip Events Conditions
12:15 AM 78.4 °F - 76.1 °F 92% 29.87 in 7.0 mi East 6.9 mph - 0.01 in Rain Light Rain
12:35 AM 77.9 °F - 76.1 °F 94% 29.87 in 10.0 mi East 11.5 mph 17.3 mph 0.01 in   Scattered Clouds
12:55 AM 77.2 °F - 74.3 °F 91% 29.87 in 10.0 mi East 8.1 mph - 0.01 in Thunderstorm Clear
1:15 AM 77.0 °F - 74.7 °F 92% 29.88 in 10.0 mi East 6.9 mph - N/A Thunderstorm Clear
1:35 AM 77.2 °F - 74.8 °F 92% 29.88 in 10.0 mi East 5.8 mph - N/A   Clear
1:55 AM 77.2 °F - 75.0 °F 93% 29.88 in 10.0 mi Calm Calm - N/A   Clear
2:15 AM 77.2 °F - 75.0 °F 93% 29.89 in 10.0 mi Calm Calm - N/A Rain Light Rain
2:35 AM 76.6 °F - 75.2 °F 95% 29.88 in 10.0 mi ESE 3.5 mph - N/A Thunderstorm Clear
2:55 AM 76.3 °F - 74.3 °F 94% 29.87 in 10.0 mi Calm Calm - N/A   Clear
3:15 AM 76.1 °F - 74.3 °F 94% 29.88 in 10.0 mi Calm Calm - N/A   Clear
3:35 AM 76.6 °F - 74.3 °F 92% 29.89 in 10.0 mi Calm Calm - N/A   Clear
3:55 AM 76.6 °F - 75.2 °F 95% 29.90 in 10.0 mi NW 3.5 mph - N/A   Clear
4:15 AM 76.1 °F - 75.2 °F 97% 29.90 in 10.0 mi NE 4.6 mph - N/A   Clear
4:35 AM 76.3 °F - 74.8 °F 95% 29.90 in 10.0 mi North 9.2 mph - N/A   Clear
4:55 AM 76.5 °F - 74.3 °F 93% 29.90 in 10.0 mi NE 6.9 mph - N/A   Clear
5:15 AM 76.6 °F - 73.8 °F 91% 29.91 in 10.0 mi North 5.8 mph - N/A   Clear
5:35 AM 76.3 °F - 73.6 °F 91% 29.91 in 10.0 mi ENE 6.9 mph - N/A   Clear
5:55 AM 76.1 °F - 73.6 °F 92% 29.92 in 10.0 mi ENE 5.8 mph - N/A   Clear
6:15 AM 76.1 °F - 73.4 °F 91% 29.92 in 10.0 mi ENE 9.2 mph - N/A   Clear
6:35 AM 76.1 °F - 73.4 °F 91% 29.92 in 10.0 mi ENE 6.9 mph - N/A   Clear
6:55 AM 75.2 °F - 73.4 °F 94% 29.93 in 10.0 mi ENE 6.9 mph - N/A   Clear
7:55 AM 75.2 °F - 71.6 °F 89% 29.94 in 10.0 mi ENE 4.6 mph - N/A   Clear
8:55 AM 75.2 °F - 73.4 °F 94% 29.95 in 10.0 mi East 5.8 mph - N/A   Scattered Clouds
10:55 AM 82.4 °F 89.5 °F 75.2 °F 79% 29.95 in 10.0 mi SSE 8.1 mph - N/A   Clear
1:55 PM 93.2 °F 105.0 °F 75.2 °F 56% 29.93 in 10.0 mi SE 4.6 mph - N/A   Clear
3:55 PM 91.4 °F 102.5 °F 75.2 °F 59% 29.90 in 10.0 mi North 5.8 mph - N/A   Scattered Clouds
4:55 PM 86.0 °F 91.8 °F 71.6 °F 62% 29.91 in 10.0 mi ENE 8.1 mph - N/A   Scattered Clouds
5:55 PM 87.8 °F 93.8 °F 71.6 °F 58% 29.92 in 10.0 mi ENE 8.1 mph - N/A   Clear
7:55 PM 78.8 °F - 73.4 °F 83% 29.96 in 10.0 mi North 4.6 mph - N/A   Scattered Clouds
8:55 PM 80.6 °F 86.2 °F 75.2 °F 84% 29.96 in 7.0 mi NNE 6.9 mph - N/A   Clear
9:55 PM 78.8 °F - 75.2 °F 89% 29.99 in 10.0 mi Calm Calm - N/A   Clear
11:35 PM 78.3 °F - 74.3 °F 88% 30.01 in 10.0 mi NE 3.5 mph - N/A   Clear
11:55 PM 78.4 °F - 74.3 °F 87% 30.01 in 10.0 mi NE 3.5 mph - N/A   Clear